Tracking 23757 objects as of 26-Oct-2021
HD Live streaming from Space Station
objects crossing your sky now

IRIDIUM 33 DEB

Track IRIDIUM 33 DEB now!
10-day predictions


NORAD ID: 36011
Int'l Code: 1997-051US
Perigee: 766.7 km
Apogee: 798.5 km
Inclination: 86.3 °
Period: 100.4 minutes
Semi major axis: 7153 km
RCS: 0.0036 m2 (small)
Launch date: September 14, 1997
Source: United States (US)
Launch site: TYURATAM MISSILE AND SPACE COMPLEX (TTMTR)

Note: This is SATELLITE DEBRIS
aabbcc
Your satellite tracking list
Your tracking list is empty




NASA's NSSDC Master Catalog

Two Line Element Set (TLE):
1 36011U 97051US  21297.83782500  .00000370  00000-0  12312-3 0  9999
2 36011  86.3410 319.2659 0022214 128.0968 354.3261 14.34883925428505
Source of the keplerian elements: AFSPC